Location: Marcé
(47.5801°N, 0.3280°W)
Time: 07:54:45
(UTC+01:00)

Vanguard 1 - Pass Details

Date: 09 December 2021
Orbit: 652 x 3830 km, 34.2° (Epoch: 16 January)

Event Time Altitude Azimuth Distance (km) Brightness Sun altitude
Exits shadow 05:54:20 27° 247° (WSW) 5,249 13.2 -26.5°
Maximum altitude 06:00:52 31° 221° (SW) 4,606 13.1 -25.4°
Drops below altitude 10° 06:13:48 10° 166° (SSE) 5,022 13.9 -23.2°
Sets 06:17:37 0° 156° (SSE) 5,607 14.4 -22.6°
